This is the latest recevied weather packets stored in our database for station/object SQ9SMC-13. If no packets are shown the sender has not sent any weather packets the latest 10 day(s).
| Time | Temp. | Humidity | Pressure | Rain* | Wind** | Luminosity | Snow |
|---|---|---|---|---|---|---|---|
| 1777734304 | 24.44° C | 31% | 1023.1 hPa | 0 mm | - | 259 W/m² | - |
| 1777734002 | 25.56° C | 29% | 1023.2 hPa | 0 mm | - | 272 W/m² | - |
| 1777733703 | 25° C | 30% | 1023.1 hPa | 0 mm | - | 285 W/m² | - |
| 1777733402 | 25° C | 28% | 1023.3 hPa | 0 mm | - | 296 W/m² | - |
| 1777733103 | 25° C | 29% | 1023.2 hPa | 0 mm | - | 308 W/m² | - |
| 1777732804 | 25° C | 29% | 1023.3 hPa | 0 mm | - | 322 W/m² | - |
| 1777732502 | 25° C | 28% | 1023.2 hPa | 0 mm | - | 335 W/m² | - |
| 1777732203 | 24.44° C | 29% | 1023.4 hPa | 0 mm | - | 349 W/m² | - |
| 1777731906 | 23.89° C | 29% | 1023.7 hPa | 0 mm | - | 357 W/m² | - |
| 1777731603 | 25° C | 28% | 1023.3 hPa | 0 mm | - | 369 W/m² | - |
| 1777731303 | 25° C | 29% | 1023.6 hPa | 0 mm | - | 381 W/m² | - |
| 1777731004 | 25° C | 28% | 1023.5 hPa | 0 mm | - | 388 W/m² | - |
| 1777730702 | 25° C | 29% | 1023.5 hPa | 0 mm | - | 401 W/m² | - |
| 1777730403 | 25° C | 30% | 1023.8 hPa | 0 mm | - | 412 W/m² | - |
| 1777730103 | 24.44° C | 30% | 1023.8 hPa | 0 mm | - | 422 W/m² | - |
| 1777729803 | 24.44° C | 29% | 1023.7 hPa | 0 mm | - | 434 W/m² | - |
| 1777729504 | 24.44° C | 29% | 1023.7 hPa | 0 mm | - | 443 W/m² | - |
| 1777729205 | 23.89° C | 29% | 1023.8 hPa | 0 mm | - | 452 W/m² | - |
| 1777728903 | 24.44° C | 29% | 1023.8 hPa | 0 mm | - | 463 W/m² | - |
| 1777728603 | 23.89° C | 30% | 1023.7 hPa | 0 mm | - | 475 W/m² | - |
| 1777728303 | 24.44° C | 29% | 1024 hPa | 0 mm | - | 488 W/m² | - |
| 1777728005 | 24.44° C | 29% | 1023.9 hPa | 0 mm | - | 495 W/m² | - |
| 1777727704 | 25° C | 29% | 1024.1 hPa | 0 mm | - | 505 W/m² | - |
| 1777727403 | 24.44° C | 28% | 1024.1 hPa | 0 mm | - | 514 W/m² | - |
| 1777727102 | 24.44° C | 30% | 1024.2 hPa | 0 mm | - | 522 W/m² | - |
* Rain latest hour (hover to see other rain measurements)
** Current wind speed in m/s (hover to see current wind gust speed)